World > North America > United States > South Dakota > Fulton  

Fulton, SD Hourly Weather Updates

Feedback E-mail the Weather

Quick Clicks

Fulton, SD Weather Maps

°F °C°F °C
Fulton Weather Map
UTC Time: 5/29/2024, 20:19
Your Time:

Fulton, SD Regional Weather

Expires:202405292100;;098762
ASUS43 KFSD 292010
RWRFSD

WEATHER ROUNDUP FOR SE SOUTH DAKOTA/SW MINNESOTA/NW IOWA
NATIONAL WEATHER SERVICE SIOUX FALLS SD
300 PM CDT WED MAY 29 2024

NOTE: "FAIR" INDICATES FEW OR NO CLOUDS BELOW 12,000 FEET WITH NO
SIGNIFICANT WEATHER AND OR OBSTRUCTIONS TO VISIBILITY.



SDZ038>040-050-052>070-292100-
SOUTHEAST SOUTH DAKOTA
  
CITY           SKY/WX    TMP DP  RH WIND       PRES   REMARKS
BROOKINGS      SUNNY     71  46  40 SE17G24   30.14F TC  22           
CHAMBERLAIN    SUNNY     76  52  42 SE16G25   30.04F TC  25           
HURON          NOT AVBL                                               
MADISON          N/A     72  45  37 SE21      30.12F TC  22           
MITCHELL       SUNNY     77  48  35 SE21G26   30.09F TC  25           
SIOUX FALLS    MOSUNNY   74  47  38 S15G22    30.13F TC  23           
WINNER         SUNNY     79  55  43 SE22G31   30.01F TC  26           
YANKTON        SUNNY     76  46  34 SE14G23   30.11F TC  24           
$$


SKY/WX - Weather  TMP - Temperature  DP - Dew Point  RH - Humidity
WIND - Wind Direction/Speed PRES - Barometric Pressure VSB - Visibility
WCI - Wind Chill Index E13G22 Wind - East Wind 13 mph/Gusts of 22 mph

Trending Headlines

Trending Entertainment Headlines

Fulton Radar Loop

Use the map search tool if you want to place a location marker on the radar map...

Fulton Quick Facts

National Two Day Weather Forecast


E-mail the Fulton Weather Forecast

Voice your opinion or tell us about page issues...